Flag for Colombia Weather past 2 weeks in San Andrés, Colombia

Now
79 °F

Passing clouds.


Feels Like: 82 °F
Forecast: 80 / 85 °F
Wind: No wind

Location: San Andres Isla / Sesquicentenario

Current Time: Mar 31, 2015 at 3:59:40 AM

Latest Report: Mar 31, 2015 at 3:00 AM


Visibility: N/A

Pressure: 29.92 "Hg

Humidity: 84%

Dew point: 73 °F

Location of San AndrésLocation

Historic Weather in San Andrés — Graph

°F

San Andrés temperature yesterday

Maximum temperature yesterday: 84 °F (at 2:00 PM)
Minimum temperature yesterday: 75 °F (at 5:00 PM)
Average temperature yesterday: 80 °F

Past Weeks' High & Low Weather Summary

 TemperatureHumidityPressure
High86 °F (Mar 19, 1:00 PM)94% (Mar 30, 4:00 PM)30.04 "Hg (Mar 30, 4:00 PM)
Low75 °F (Mar 30, 5:00 PM)66% (Mar 17, 4:00 PM)29.79 "Hg (Mar 29, 6:00 AM)
Average81 °F77%29.95 "Hg
* Reported Mar 16 3:00 AM — Mar 31 3:00 AM, San Andrés, Weather by CustomWeather, © 2015

Note: Actual official high and low records may vary slightly from our data, if they occured in-between our weather recording intervals... More about our weather records

Advertising

San Andrés weather history for previous 24 hours

 ConditionsComfort  
Time TempWeatherWind HumidityBarometerVisibility
3:00 AM
Tue, Mar 31
79 °FPassing clouds.7 mph84%29.92 "HgN/A
2:00 AM81 °FPassing clouds.8 mph79%29.93 "HgN/A
1:00 AM81 °FPassing clouds.9 mph79%29.95 "HgN/A
12:00 AM81 °FPassing clouds.12 mph84%29.97 "HgN/A
11:00 PM
Mon, Mar 30
81 °FPassing clouds.14 mph84%29.98 "HgN/A
10:00 PM81 °FPassing clouds.10 mph84%29.98 "HgN/A
9:00 PM81 °FPassing clouds.12 mph84%29.97 "HgN/A
8:00 PM81 °FPassing clouds.12 mph84%29.95 "HgN/A
7:00 PM79 °FPassing clouds.8 mph89%29.93 "HgN/A
6:00 PM77 °FBroken clouds.No wind94%29.91 "HgN/A
5:00 PM75 °FRain. Broken clouds.5 mph94%29.91 "Hg2 mi
4:00 PM77 °FRain. Broken clouds.No wind94%29.91 "Hg1 mi
3:00 PM82 °FPartly sunny.5 mph84%29.93 "HgN/A
2:00 PM84 °FPartly sunny.3 mph79%29.95 "HgN/A
1:00 PM82 °FOvercast.3 mph79%29.98 "HgN/A
12:00 PM81 °FOvercast.5 mph79%30.00 "HgN/A
11:00 AM82 °FOvercast.5 mph74%30.01 "HgN/A
10:00 AM81 °FPartly sunny.9 mph79%30.01 "HgN/A
9:00 AM81 °FScattered clouds.13 mph79%30.00 "HgN/A
8:00 AM81 °FScattered clouds.5 mph79%29.98 "HgN/A
7:00 AM81 °FScattered clouds.6 mph79%29.95 "HgN/A
6:00 AM79 °FPassing clouds.6 mph84%29.94 "HgN/A
5:00 AM79 °FPassing clouds.6 mph84%29.93 "HgN/A
4:00 AM81 °FPassing clouds.6 mph79%29.93 "HgN/A
3:00 AM81 °FPassing clouds.6 mph79%29.95 "HgN/A
Weather by CustomWeather, © 2015

See weather overviewHow to use our weather pages